Regional Weather Roundup
Issued by NWS

Home | Current Version | Previous Version | Graphics & Text | Print | Product List | Glossary On
Versions: 1 2 3 4 5 6 7 8 9 10 11 12 13 14 15 16 17 18 19 20 21 22 23 24 25 26 27 28
000
ASUS45 KTFX 201610
RWRMT
MONTANA REGIONAL WEATHER ROUNDUP
NATIONAL WEATHER SERVICE GREAT FALLS MT
900 AM MST SAT JAN 20 2018

NOTE: "FAIR" INDICATES FEW OR NO CLOUDS BELOW 12000 FEET WITH NO
SIGNIFICANT WEATHER AND/OR OBSTRUCTIONS TO VISIBILITY.

MTZ001>007-043-201700-
WEST OF THE DIVIDE

CITY           SKY/WX    TMP DP  RH WIND       PRES   REMARKS
KALISPELL      CLOUDY    32  29  88 SE15      29.94R WCI  22
MISSOULA       CLOUDY    29  24  82 S5        29.99R
BUTTE          CLOUDY    12   8  84 CALM      29.93S
MULLAN PASS    FOG       23  21  92 VRB5      29.86R VSB 1/4
ANACONDA         N/A     25  16  68 W5        29.94R
DEER LODGE       N/A     21  18  86 CALM      29.96R
EUREKA           N/A     34  27  75 MISG      29.91S
HAMILTON         N/A     30  21  69 S12       29.99R WCI  21
PLAINS           N/A     30  25  82 CALM      29.98R
RONAN            N/A     32  28  86 S8        29.98R WCI  25
$$

MTZ008-052>055-201700-
SOUTHWEST MONTANA

CITY           SKY/WX    TMP DP  RH WIND       PRES   REMARKS
BOZEMAN        CLOUDY    12   8  84 S8        29.97S WCI   0
DILLON         FAIR       6   1  80 CALM      29.95R
ENNIS          PTCLDY     9   3  78 CALM      29.99R
W YELLOWSTONE  FAIR       9   7  92 CALM      29.89R
THREE FORKS      N/A     23  19  85 CALM      29.96R
$$

MTZ009-010-012-014-046-048-049-054-201700-
EAST SLOPES AND CENTRAL MONTANA

CITY           SKY/WX    TMP DP  RH WIND       PRES   REMARKS
CUT BANK       CLOUDY    31  19  61 W16       29.80R WCI  20
GREAT FALLS    FAIR      28  17  63 SW15      29.86R WCI  16
MALMSTROM AFB  FAIR      27  20  72 SW16      29.87R WCI  15
HELENA         MOCLDY    23  15  71 CALM      29.94R
AUGUSTA        FAIR      30  18  61 W25G35    29.82R WCI  16
BOWMANS CRNR   FAIR      22  17  81 S12       29.84R WCI  10
CHOTEAU          N/A     32  16  51 W9        29.83S WCI  24
FAIRFIELD      FAIR      27  16  63 S14       29.83R WCI  16
POWER          FAIR      22  15  75 SW13      29.84R WCI  10
RAYNESFORD     FAIR      30  15  53 SW23      29.85S WCI  16
ULM            FAIR      28  20  72 SW6       29.87S WCI  21
WHITE SULPHUR    N/A     19  10  68 SE15      29.88S WCI   5
$$

MTZ011-013-016-021-045-047-050-051-201700-
NORTH CENTRAL MONTANA

CITY           SKY/WX    TMP DP  RH WIND       PRES   REMARKS
HAVRE          FAIR      19  15  84 SW17      29.84R WCI   4
LEWISTOWN      FAIR      24  16  71 SW15      29.87R WCI  11
N BAR RANCH    FAIR      21  10  63 CALM      29.89R
CHINOOK          N/A     23  16  74 W7        29.84R WCI  15
DENTON         FAIR      24  15  71 MISG      29.84R
GEYSER         FAIR      27  16  64 W15       29.86R WCI  15
GRASS RANGE    FAIR      26  17  68 W3        29.85S
STANFORD       FAIR      27  16  62 W12       29.85S WCI  16
WINIFRED       FAIR      28  18  66 SW12      29.85R WCI  18
$$

MTZ017>020-022>027-061-062-201700-
NORTHEAST MONTANA

CITY           SKY/WX    TMP DP  RH WIND       PRES   REMARKS
GLASGOW        FAIR      18  12  77 W7        29.85R WCI   9
GLENDIVE       FAIR      26  19  74 W10       29.88R WCI  16
JORDAN           N/A     18  12  77 W9        29.88R WCI   7
MALTA          CLEAR      9   5  85 W8        29.86R WCI  -4
SIDNEY         FAIR      31  22  69 W20       29.83S WCI  19
WOLF POINT     FAIR      18  13  80 W7        29.87R WCI   9
PLENTYWOOD       N/A     19  16  86 CALM      29.80R
POPLAR           N/A     18  12  79 W5        29.86R
$$

MTZ028>42-056>058-201700-
SOUTHCENTRAL AND SOUTHEAST MONTANA

CITY           SKY/WX    TMP DP  RH WIND       PRES   REMARKS
BAKER          FAIR      30  27  88 W13       29.89R WCI  20
BILLINGS       MOCLDY    30  19  63 W7        29.92R WCI  23
LIVINGSTON     FAIR      19  14  81 W9        29.93R WCI   8
MILES CITY     FAIR      28  22  78 W6        29.90R WCI  22
BIG TIMBER     CLEAR     27  14  59 W32G38    29.91R WCI  10
EKALAKA          N/A     31  24  75 SW6       29.87R WCI  25
FORSYTH          N/A     28  19  69 W6        29.91R WCI  22
HARLOWTON      FAIR      21  13  71 W6        29.89R WCI  14
LAUREL           N/A     32  19  59 W5        29.93S
$$

REGIONAL REPORTS...DAKOTAS

CITY           SKY/WX    TMP DP  RH WIND       PRES   REMARKS
WILLISTON      FAIR      27  19  72 W22       29.81R WCI  13
MINOT          FAIR      31  22  69 SW14      29.78R WCI  21
DICKINSON      FAIR      32  24  72 W12       29.83R WCI  23
BEACH          FAIR      28  25  86 W14       29.89R WCI  17
CROSBY         FAIR      19  16  86 SW10      29.79R WCI   8
TIOGA          FAIR      23  21  93 CALM      29.81R
WATFORD CITY   FAIR      28  21  74 SW10G16   29.82R WCI  19
BISMARCK       FAIR      32  28  85 CALM      29.86R
GRAND FORKS    PTSUNNY   27  24  89 SW5       29.81R
FARGO          PTSUNNY   31  28  89 SW8       29.83R WCI  23
BUFFALO SD       N/A     32  28  85 W7        29.83R WCI  26
RAPID CITY     CLOUDY    35  31  85 N6        29.89S WCI  30
$$

REGIONAL REPORTS...WYOMING/IDAHO/WASHINGTON

CITY           SKY/WX    TMP DP  RH WIND       PRES   REMARKS
GILLETTE         N/A     28  24  85 W9        29.90R WCI  19
SHERIDAN       CLOUDY    30  24  78 NW5       29.93R
BUFFALO WY     CLOUDY    30  20  66 N5        29.90R
CODY           FAIR      27  24  89 S5        29.89R
YELLOWSTONE LA   N/A      9   6  88 CALM      29.86R
IDAHO FALLS    FAIR      26  18  71 NW10      29.96R WCI  16
SALMON         CLOUDY    24  21  88 CALM      30.02S
BOISE          CLOUDY    31  26  82 CALM      30.05R
SPOKANE        MOCLDY    33  28  81 S10       29.96R WCI  25
$$

REGIONAL REPORTS...ALBERTA

CITY           SKY/WX    TMP DP  RH WIND       PRES   REMARKS
CALGARY        PTCLDY    23  10  58 S8        29.68S WCI  14
CARDSTON         N/A     34  18  51 W14G21      N/A  WCI  24
EDMONTON       CLOUDY    14  12  92 E5        29.73
FORT MCMURRAY  CLOUDY    18  14  86 CALM      29.75R
HIGH LEVEL     FLURRIES  16  14  93 N6        29.79R WCI   7
LETHBRIDGE     MOCLDY    34  23  64 W14       29.76R WCI  24
LLOYDMINSTER   CLOUDY    23  21  93 W7        29.70R WCI  15
MEDICINE HAT   MOCLDY    25  18  74 SW8       29.78R WCI  16
MILK RIVER       N/A     19  12  73 S3          N/A
ONEFOUR          N/A     21   9  58 W5          N/A
PEACE RIVER    FLURRIES  16  12  86 S3        29.73R
PINCHER CREEK  CLOUDY    32  21  64 W15G26    29.77R WCI  22
WATERTON GATE    N/A     30  21  69 SW21G29     N/A  WCI  17
$$

REGIONAL REPORTS...SASKATCHEWAN

CITY           SKY/WX    TMP DP  RH WIND       PRES   REMARKS
CORONACH         N/A     23  16  74 W8          N/A  WCI  14
CYPRESS HILLS    N/A     28  10  47 W7          N/A  WCI  21
ESTEVAN        PTCLDY    18  14  86 SW9       29.76R WCI   6
MOOSE JAW        N/A     27  19  74 W13         N/A  WCI  16
PRINCE ALBERT  FLURRIES  18  14  86 E7        29.71R WCI   8
REGINA         MOCLDY    21  19  93 SW8       29.72R WCI  12
ROCKGLEN         N/A     19  14  79 W13         N/A  WCI   7
SASKATOON      MOCLDY    25  23  93 NW8       29.71R WCI  16
SWIFT CURRENT  CLEAR     25  18  74 W15       29.73R WCI  12
$$




USA.gov is the U.S. government's official web portal to all federal, state and local government web resources and services.